Miscellaneous Local Product
Issued by NWS Hastings, NE

Home | Current Version | Previous Version | Graphics & Text | Print | Product List | Glossary On
Versions: 1 2 3 4 5 6 7 8 9 10 11 12 13 14 15 16 17 18 19 20 21 22 23 24 25 26 27 28 29 30 31 32 33 34 35 36 37 38 39 40 41 42 43 44 45 46 47 48 49 50
000
AXUS43 KGID 202202
MISGRI

GID CWA HOURLY WEATHER ROUNDUP
NATIONAL WEATHER SERVICE HASTINGS NE
500 PM CDT WED MAY 20 2015

NOTE: "FAIR" INDICATES FEW OR NO CLOUDS BELOW 12,000 FEET WITH NO
SIGNIFICANT WEATHER AND/OR OBSTRUCTIONS TO VISIBILITY.

...SOUTH CENTRAL NEBRASKA...

CITY           SKY/WX    TMP DP  RH WIND       PRES   REMARKS
GRAND ISLAND   CLOUDY    48  40  73 NE12      30.28S
HASTINGS       LGT RAIN  47  41  80 N9        30.27S
KEARNEY        CLOUDY    50  39  66 N16       30.28R
ORD            CLOUDY    49  39  68 N9        30.27F
YORK           CLOUDY    50  43  76 N14       30.26F
AURORA         CLOUDY    48  43  81 N12       30.27S
LEXINGTON      CLOUDY    49  42  77 N13       30.28R
HOLDREGE       CLOUDY    48  40  73 N10       30.27S
HEBRON         CLOUDY    50  42  73 N14       30.24F

...NEBRASKA PANHANDLE...

CITY           SKY/WX    TMP DP  RH WIND       PRES   REMARKS
CHADRON        CLOUDY    47  35  63 CALM      30.31F
ALLIANCE       CLOUDY    44  34  67 N8        30.29F
SCOTTSBLUFF    CLOUDY    46  34  62 VRB3      30.30S
SIDNEY         CLOUDY    45  34  65 N8        30.29S

...WESTERN AND NORTH CENTRAL NEBRASKA...

CITY           SKY/WX    TMP DP  RH WIND       PRES   REMARKS
VALENTINE      CLOUDY    50  35  56 E6        30.30S
AINSWORTH      CLOUDY    47  39  71 CALM      30.30S
ONEILL         PTSUNNY   51  40  67 N3        30.29F
BROKEN BOW     CLOUDY    49  40  71 N13       30.28S
IMPERIAL       CLOUDY    50  36  58 N8        30.28F
NORTH PLATTE   CLOUDY    49  37  63 N10       30.27F
MCCOOK         CLOUDY    53  37  54 N9        30.27F

...EASTERN NEBRASKA...

CITY           SKY/WX    TMP DP  RH WIND       PRES   REMARKS
NORFOLK        CLOUDY    50  39  66 N7        30.26F
SO SIOUX CITY  CLOUDY    51  41  68 NE8       30.26S
TEKAMAH        CLOUDY    50  43  77 NE10      30.25F
COLUMBUS       CLOUDY    48  37  66 NE10      30.29S
ALBION         CLOUDY    48  39  70 N5        30.27F
OMAHA EPPLEY   CLOUDY    50  43  77 NE10      30.24S
MILLARD        CLOUDY    49  42  78 N6        30.24
LINCOLN        CLOUDY    51  41  68 NW13      30.26S
NEBRASKA CITY  CLOUDY    51  43  74 NE10      30.22F
BEATRICE       CLOUDY    52  43  72 N12       30.23S
FALLS CITY     CLOUDY    52  46  80 N12       30.20F

...NORTHERN KANSAS...

CITY           SKY/WX    TMP DP  RH WIND       PRES   REMARKS
GOODLAND       CLOUDY    49  37  63 N15       30.27F
HILL CITY      CLOUDY    52  41  66 N14       30.26F
NORTON         CLOUDY    54  39  58 N12       30.26S
PHILLIPSBURG   CLOUDY    54  43  66 N12       30.26S
SMITH CENTER   CLOUDY    52  43  71 N13       30.26S
HAYS           CLOUDY    52  37  58 N14       30.25S
RUSSELL        CLOUDY    54  43  66 N15       30.22F
CONCORDIA      CLOUDY    53  43  68 N14G21    30.23S
SALINA         CLOUDY    57  45  64 N16       30.22S
TOPEKA         CLOUDY    53  49  86 N13       30.19S



USA.gov is the U.S. government's official web portal to all federal, state and local government web resources and services.